This demonstration page uses our WeatherBlox Daily Observations layout. Learn more.

Left ArrowRight Arrow

39.92423, -83.80882

Hourly Observations for January 22, 2018

Temp ( °F °C ) Dew Point ( °F °C ) Humidity (%) Winds ( mph kmh ) Pressure ( in mb ) Visibility ( mi km ) Precip ( " mm )
12:04 am 00:04 Cloudy with Mist and Fog 46 8 45 7 93 93 SSE 6 9 30.03 1017 1 1.60934 0 0
12:09 am 00:09 Cloudy with Mist and Fog 46 8 46 8 100 100 SSE 7 11 30.03 1017 2 3.21868 0 0
12:17 am 00:17 Cloudy with Mist and Fog 46 8 46 8 100 100 SSE 7 11 30.03 1017 6 9.65604 0 0
12:27 am 00:27 Cloudy with Mist and Fog 46 8 46 8 100 100 SE 8 13 30.03 1017 6 9.65604 0 0
12:56 am 00:56 Cloudy 47 8.3 46 7.8 97 97 SSE 6 9 30.01 1016 7 11.26538 0 0
1:56 am 01:56 Cloudy 46 7.8 45 7.2 96 96 SE 7 11 29.99 1016 9 14.48406 0 0.0254
2:56 am 02:56 Cloudy 48 8.9 46 7.8 93 93 S 8 13 29.97 1015 10 16.0934 0 0
3:56 am 03:56 Cloudy 50 10 45 7.2 83 83 S 9 15 29.96 1015 10 16.0934 0 0
4:56 am 04:56 Cloudy 51 10.6 44 6.7 77 77 S 9 15 29.94 1014 10 16.0934 0 0
5:56 am 05:56 Mostly Cloudy 50 10 43 6.1 77 77 S 8 13 29.92 1013 10 16.0934 0 0
6:56 am 06:56 Mostly Cloudy 49 9.4 43 6.1 80 80 S 12 19 29.91 1013 10 16.0934 0 0
7:56 am 07:56 Sunny 49 9.4 43 6.1 80 80 SSE 10 17 29.89 1012 10 16.0934 0 0
8:56 am 08:56 Sunny 50 10 43 6.1 77 77 S 10 17 29.89 1012 10 16.0934 0 0
9:56 am 09:56 Sunny 52 11.1 44 6.7 75 75 S 13 20 29.88 1012 10 16.0934 0 0
10:56 am 10:56 Cloudy 55 12.8 45 7.2 69 69 SSW 9 15 29.89 1012 10 16.0934 0 0
11:56 am 11:56 Cloudy 55 12.8 45 7.2 69 69 SSW 9 15 29.89 1012 10 16.0934 0 0.0254
12:56 pm 12:56 Cloudy with Light Rain 55 12.8 46 7.8 72 72 SSW 13 20 29.83 1010 10 16.0934 0 0.0254
1:56 pm 13:56 Cloudy with Light Rain 54 12.2 46 7.8 75 75 S 15 24 29.78 1009 10 16.0934 0.01 0.254
2:56 pm 14:56 Cloudy with Light Rain 52 11.1 47 8.3 83 83 S 10 17 29.74 1007 10 16.0934 0.03 0.762
3:56 pm 15:56 Cloudy with Light Rain 53 11.7 47 8.3 80 80 S 15 24 29.71 1006 10 16.0934 0 0.0254
4:56 pm 16:56 Cloudy 52 11.1 47 8.3 83 83 SSE 18 30 29.69 1005 10 16.0934 0.01 0.254
5:56 pm 17:56 Cloudy 53 11.7 48 8.9 83 83 S 12 19 29.68 1005 10 16.0934 0 0
6:56 pm 18:56 Cloudy 54 12.2 48 8.9 80 80 S 13 20 29.66 1004 10 16.0934 0 0
7:33 pm 19:33 Cloudy 54 12 48 9 82 82 S 14 22 29.62 1003 10 16.0934 0 0
7:56 pm 19:56 Cloudy 54 12.2 48 8.9 80 80 SSE 16 26 29.62 1003 10 16.0934 0 0
8:12 pm 20:12 Cloudy 54 12 48 9 82 82 SSE 17 28 29.62 1003 10 16.0934 0 0
8:56 pm 20:56 Cloudy 54 12.2 50 10 87 87 SSE 20 31 29.58 1002 10 16.0934 0 0.0254
9:34 pm 21:34 Cloudy with Nearby Thunderstorms 55 13 50 10 82 82 S 12 19 29.53 1000 10 16.0934 0 0.0254
10:56 pm 22:56 Cloudy with Light Rain 48 8.9 44 6.7 86 86 SW 15 24 29.59 1002 10 16.0934 0.11 2.794
11:56 pm 23:56 Cloudy 50 10 43 6.1 77 77 SW 18 30 29.6 1002 10 16.0934 0 0.0254

Powered by AerisWeather